sat.trackr.live / text

‹ back to catalog

DOJO

NORAD 65302 · 2025-185F

PAYLOAD ACTIVE UNKNOWN

§ Identity

Operator
Country
RWA
Launch date
2025-08-23
Launch site
RLLB
Launch vehicle
Mass (kg)
RCS (m²)

External: N2YO · Heavens-Above · Gunter

§ Orbital elements

Epoch: 2026-09-20T04:31:50.072736Z

Period
97.24 min
Inclination
97.9632°
Eccentricity
0.0015468
Mean motion
14.80877244 rev/d
Perigee alt
615.7 km
Apogee alt
637.4 km
Semi-major
7,004.7 km
B*
8.1021e-4
RAAN
345.8152°
Arg perigee
134.8314°
Mean anomaly
225.4158°
Rev number
5,789

§ Raw data

DOJO1 65302U 25185F   26263.18877399  .00006221  00000+0  81021-3 0  99932 65302  97.9632 345.8152 0015468 134.8314 225.4158 14.80877244 57891

JSON: /api/v1/satellites/65302 · /tle

For live sub-satellite position, see the globe view (requires WebGL).

§ Visibility from observer

Set your observer location to see the next 7 days of passes ≥ 10°. The values pass through the URL so the page stays shareable.

No JS? Fill the form by hand. The geolocation button needs JavaScript.